Back to catalog

COSMOS 2499 DEB

AlivePO
NORAD 49936·DEBRIS·🇷🇺 Russia

Launched May 23, 2014 from Plesetsk Cosmodrome

Loading…

Next Passes (next 24 hours)

TLE

FreshSource: Space-Track

Epoch: Sep 13, 2026, 12:53 UTC

1 49936U 14028T   26256.53702148  .00004257  00000-0  87292-2 0  9995
2 49936  82.5302 172.4011 0329339 337.1996  21.4776 13.14339599100595

Track COSMOS 2499 DEB in real time with AllMySat

Download on the App Store